RH
87 93 98 82 99 97 99 99 99 100 100 98 97 91 64 54 51 54 56 61 59 52 51 55 51 46 41 47 47 49 41 43 53 46 50 46 44 39 38 48 47 56 55 40
92 94 92 99 92 85 94 98 98 96 97 98 97 78 73 62 55 56 61 57 57 59 60 61 54 52 72 69 56 51 47 50 56 63 60 54 54 48 41 41 44 44 55 35
88 95 98 94 95 92 88 97 100 98 97 98 96 92 93 88 94 66 68 66 65 66 70 58 54 64 87 79 81 85 76 58 42 36 30 47 59 56 49 44 53 47 42 36
86 92 94 97 96 92 85 98 100 99 100 100 100 100 100 100 100 100 94 97 88 84 75 62 66 57 83 88 83 83 82 97 63 58 62 63 63 58 55 55 50 55 40 41
75 88 90 98 99 96 90 99 99 98 100 100 100 99 100 99 100 100 100 98 100 100 99 100 100 100 90 94 81 94 93 94 90 82 61 65 75 65 66 69 64 62 57 61
76 76 88 97 98 94 94 99 97 84 98 100 96 100 100 100 100 100 100 100 98 99 100 100 99 98 98 99 100 100 100 99 97 90 77 93 85 69 62 62 80 90 94 94
78 79 84 94 96 90 82 89 86 82 100 84 89 99 97 100 100 100 100 100 98 98 86 86 88 92 90 84 91 96 99 99 97 94 95 92 91 84 66 79 84 81 71 47
78 81 82 84 89 98 83 82 84 88 94 80 94 92 91 100 100 100 100 97 84 79 82 86 87 87 84 76 75 77 85 97 94 93 89 90 93 75 75 86 90 76 46 36
81 92 94 94 91 97 90 86 73 82 97 88 67 79 79 86 96 100 100 88 86 84 84 83 80 72 59 55 80 81 80 84 96 94 93 89 80 73 62 74 90 46 46 48
88 87 94 99 98 91 99 93 88 87 100 78 71 81 91 75 84 97 96 94 98 85 92 87 79 72 60 60 63 91 90 94 90 85 93 93 94 61 66 70 60 52 46 54
86 82 85 92 91 92 99 98 95 87 100 85 74 67 78 77 71 80 87 87 97 100 96 86 82 80 68 75 64 72 71 75 76 78 90 79 96 74 58 40 35 40 51 52
80 88 85 89 94 92 95 98 98 91 93 98 93 81 75 74 61 71 90 77 85 81 87 91 86 89 88 76 67 66 72 54 50 55 50 67 68 46 35 38 41 38 46 58
70 83 90 90 96 89 96 96 99 92 100 100 90 83 85 76 78 69 87 91 72 84 76 86 88 89 80 84 79 63 56 60 61 58 58 55 58 44 34 34 43 66 68 66
71 81 90 90 95 99 91 98 98 88 98 95 84 80 85 87 82 81 80 76 86 85 88 96 90 86 71 71 63 63 48 58 63 61 49 44 31 29 44 59 61 58 54 53
71 71 82 88 91 99 98 98 100 93 84 90 85 85 79 84 84 86 92 84 100 100 100 97 93 81 80 84 82 76 55 48 48 52 40 31 30 57 59 58 59 57 56 56
77 75 74 83 99 98 97 100 100 95 79 98 89 82 84 92 92 94 93 96 100 100 100 93 91 79 74 90 78 54 52 45 42 39 51 50 56 61 61 61 60 57 59 54
82 79 87 98 98 94 90 86 94 99 89 98 90 88 75 88 89 92 97 99 99 97 97 95 87 87 85 90 84 50 52 57 60 62 59 61 66 71 68 66 64 64 62 66
98 100 98 100 89 85 92 100 100 98 95 88 95 90 79 91 90 91 92 95 97 96 92 87 82 88 92 91 64 72 70 65 68 66 64 66 68 64 63 66 68 65 65 65
95 88 79 93 82 94 99 93 88 82 79 91 89 86 81 84 87 87 90 90 92 88 89 80 74 87 87 75 81 78 77 77 78 70 65 64 65 67 67 66 65 67 64 60
79 68 66 93 100 100 98 77 97 100 96 93 91 80 86 78 80 87 81 86 87 92 72 82 88 73 85 83 84 86 88 88 82 80 75 71 72 70 70 69 66 64 63 62
75 91 96 94 99 96 85 91 91 93 94 89 88 76 80 81 84 79 74 88 87 95 76 82 82 77 91 90 91 90 88 84 82 85 82 77 76 80 74 68 64 64 60 58
74 82 89 93 89 90 86 89 90 90 86 88 88 90 84 88 83 84 91 90 89 90 86 88 86 91 83 89 92 89 91 89 79 76 82 75 73 72 78 77 72 67 64 65
84 87 92 90 93 95 100 100 95 96 90 91 93 95 90 92 91 93 91 94 88 78 92 84 88 81 84 92 92 84 82 83 81 73 70 74 77 76 82 85 76 74 76 72
97 95 96 96 96 94 86 80 82 89 88 89 89 92 91 92 95 91 92 85 87 92 94 89 82 83 85 85 83 88 81 76 77 77 78 79 83 83 82 83 83 86 82 74
96 96 94 96 90 93 94 93 89 89 89 90 94 94 90 93 93 92 91 94 92 90 87 80 81 83 85 80 72 67 71 80 84 81 83 86 88 89 87 83 88 87 88 84
93 92 93 86 90 94 92 92 92 89 89 89 90 92 94 92 92 92 91 91 89 86 85 81 78 72 69 67 66 70 80 87 87 90 90 87 90 89 86 91 92 91 90 89
92 94 86 90 91 92 91 90 91 92 92 92 92 94 87 89 93 93 88 89 86 88 79 67 70 78 80 78 78 75 78 81 86 91 93 92 92 93 98 95 81 85 87 88
Wind_Speed
10 8 5 4 5 3 1 2 3 6 19 6 3 10 11 7 10 4 3 2 4 6 7 7 7 8 3 2 7 9 7 2 5 6 1 3 3 6 12 6 7 5 4 8
12 11 6 6 6 1 1 2 2 2 1 7 7 4 11 11 12 8 8 10 7 6 6 4 7 6 3 7 1 5 8 5 4 4 1 1 6 6 7 5 4 18 11 5
11 12 10 8 9 10 5 0 2 1 1 2 2 7 6 12 4 8 3 3 3 5 7 7 4 6 5 4 4 5 2 5 10 12 5 4 5 7 11 15 11 15 21 22
10 11 9 8 11 11 7 1 2 2 2 2 2 2 3 3 3 2 1 2 7 7 10 15 13 8 4 4 8 3 1 7 11 13 7 3 10 10 10 15 18 15 20 18
7 10 13 10 9 14 3 3 2 2 2 3 3 3 2 2 3 2 1 4 4 3 3 2 2 4 2 1 4 1 2 4 1 9 11 9 13 14 15 15 18 20 23 20
7 6 10 11 10 9 3 3 3 1 1 3 4 2 3 3 2 4 5 6 6 10 5 4 5 6 4 3 2 2 2 1 3 11 2 3 9 7 12 4 2 2 5 5
9 7 7 11 10 14 4 5 4 2 3 4 4 4 4 6 3 3 2 4 3 3 3 2 3 1 1 2 3 2 1 1 2 1 3 5 5 9 7 13 9 9 7 5
6 5 7 6 12 21 10 8 3 2 5 7 9 10 7 7 5 3 3 3 3 5 2 2 3 2 2 2 5 8 7 2 2 3 4 2 4 2 3 2 5 2 6 8
5 5 6 12 12 9 15 6 4 2 5 6 8 10 10 5 3 3 4 2 3 1 1 2 2 2 2 3 3 2 7 6 3 2 4 4 6 3 2 4 5 5 4 8
6 2 5 6 10 15 22 8 4 4 3 1 6 4 8 5 4 3 3 5 3 1 1 1 2 2 0 3 3 4 3 3 6 7 4 2 7 0 2 1 3 3 5 5
5 2 3 9 4 8 15 14 14 5 2 2 1 2 5 4 4 5 6 4 1 2 3 3 3 3 3 2 1 4 7 6 4 4 4 8 11 7 3 2 4 5 6 6
2 9 6 5 8 8 12 6 18 8 4 2 1 2 6 4 4 4 2 1 3 4 2 1 2 2 3 3 3 2 4 5 3 6 2 6 9 4 3 2 3 8 8 7
2 2 8 4 10 9 10 11 12 8 2 2 1 1 0 3 2 3 3 1 2 3 2 2 1 3 3 4 5 3 4 3 3 1 5 7 6 4 6 2 4 2 3 5
2 1 6 4 12 7 15 11 12 10 3 2 2 2 3 2 3 7 3 4 5 4 1 1 2 3 4 2 1 4 2 6 4 3 4 5 5 4 2 3 4 6 6 7
2 2 5 9 9 12 9 12 8 8 1 3 2 2 4 5 1 3 7 8 5 2 2 3 3 2 3 1 1 6 5 7 6 7 11 7 4 4 4 4 4 5 7 8
6 1 5 10 16 15 9 2 5 7 3 2 2 2 4 8 6 5 4 6 2 2 2 2 3 0 4 4 4 2 8 6 5 3 2 1 2 3 4 3 5 6 7 7
6 4 12 17 11 10 5 2 5 8 7 2 2 1 3 2 2 2 1 2 1 1 2 3 3 3 4 2 4 2 2 4 4 5 3 2 3 1 4 4 5 6 4 5
23 23 19 19 19 13 9 12 13 10 7 2 2 2 2 3 2 2 2 2 2 1 2 2 2 2 1 4 5 3 5 4 3 5 5 3 2 1 4 4 5 4 4 7
13 14 13 10 7 4 3 4 5 7 5 2 1 2 2 0 2 2 1 0 2 1 2 3 4 3 5 1 4 4 5 3 5 7 3 2 1 2 4 4 4 5 6 7
8 2 5 2 3 6 7 3 2 2 3 2 1 1 3 1 2 2 2 1 1 2 2 4 4 3 5 5 3 2 3 4 5 2 1 3 2 4 5 5 6 6 8 10
1 3 2 3 2 3 3 2 1 1 1 1 2 2 2 2 2 3 1 2 2 2 3 4 4 3 2 3 2 1 2 2 3 2 3 5 6 7 7 8 9 10 11 11
2 9 6 2 2 2 2 1 1 2 2 1 2 2 0 2 0 2 3 2 3 4 3 3 3 2 1 1 1 1 2 3 5 4 7 9 9 10 10 11 12 12 13 14
5 3 3 1 1 2 4 5 2 2 3 1 2 2 1 2 2 1 2 4 4 3 3 2 1 1 0 1 2 3 4 5 7 9 9 10 12 11 10 12 14 15 15 17
2 3 2 4 3 3 3 2 2 2 1 2 1 2 1 1 3 2 3 2 3 3 3 2 1 1 2 3 3 4 8 9 10 11 12 12 12 14 15 13 14 16 17 17
1 0 4 4 2 2 1 1 2 2 1 1 2 1 1 1 2 2 1 2 3 1 1 2 1 2 4 6 7 8 9 9 10 13 13 14 15 15 17 16 15 16 18 19
2 3 2 2 2 1 1 1 2 2 1 1 0 1 2 2 1 1 2 1 2 2 2 1 3 5 6 8 9 13 13 13 14 14 15 16 16 16 18 19 22 22 18 18
2 2 2 2 3 2 2 1 1 3 1 2 1 4 2 1 1 1 1 1 2 2 2 3 4 7 8 11 13 13 14 15 15 16 17 18 19 20 19 16 22 16 18 21
Wind_Direction
288 297 316 220 65 112 218 340 123 160 161 174 190 211 210 210 211 191 165 137 181 199 178 192 218 218 249 357 162 176 203 196 200 202 47 316 230 225 197 223 217 239 283 262
280 272 250 205 182 261 77 338 109 14 24 182 194 187 209 226 221 199 188 203 189 179 190 220 206 205 56 21 192 161 163 203 221 188 235 240 227 200 222 255 265 248 253 246
282 271 233 215 178 166 141 119 105 40 34 50 256 200 203 199 6 230 233 184 187 166 203 224 222 201 28 29 57 18 260 224 236 249 309 107 191 206 216 220 242 260 247 267
286 256 241 220 194 173 136 41 95 330 152 94 86 40 35 115 148 36 1 185 228 216 223 223 227 220 150 51 356 35 356 252 254 272 283 265 270 250 211 218 233 240 269 273
270 272 263 234 218 175 94 124 144 53 76 80 83 98 86 78 113 43 85 114 82 140 129 2 113 121 153 158 48 64 351 266 329 269 270 262 269 260 250 252 255 259 268 267
233 255 255 253 197 152 126 128 103 180 109 113 113 56 86 77 109 41 43 108 97 76 89 87 72 50 73 103 91 84 346 335 182 266 324 18 278 257 234 217 67 283 255 29
225 247 266 234 251 193 132 167 138 134 113 105 112 124 102 91 59 100 58 52 71 107 145 125 109 98 209 217 187 226 132 142 151 272 136 236 64 45 79 111 100 86 65 352
237 264 227 237 240 187 181 168 157 140 127 129 130 140 119 112 84 83 86 47 84 162 149 109 112 109 182 206 214 210 211 154 227 249 220 94 188 96 153 226 149 126 354 335
212 220 256 239 225 193 190 164 120 113 126 196 150 151 161 137 130 132 111 134 146 194 84 115 140 147 130 160 139 199 194 226 228 192 250 249 114 189 205 185 195 196 336 328
196 241 205 90 199 206 186 183 153 66 101 103 147 157 170 147 121 111 139 157 165 300 126 119 153 172 133 210 198 177 171 182 225 235 259 193 134 213 189 189 74 226 326 317
226 220 175 195 172 173 149 152 172 131 79 114 187 144 142 131 163 160 154 125 187 154 180 185 183 196 179 198 212 186 195 184 205 200 224 254 161 170 190 276 328 314 296 292
289 224 207 198 188 174 161 126 189 167 81 111 125 115 99 60 130 127 131 68 149 165 151 195 133 172 176 195 217 200 232 225 223 219 214 110 166 139 195 243 278 294 289 300
313 243 199 190 191 184 169 143 135 119 102 61 95 150 133 199 192 165 135 206 157 152 37 138 127 213 167 187 227 226 231 174 225 188 180 187 163 206 193 258 318 329 315 302
309 220 204 177 176 124 166 145 155 111 75 131 151 46 50 345 232 207 177 116 105 89 61 117 185 215 202 203 303 234 246 161 184 244 242 254 220 199 51 10 334 322 328 323
301 224 205 194 159 168 161 135 131 130 157 140 124 61 13 6 322 175 182 163 130 134 172 196 212 148 152 158 247 250 187 215 220 246 262 238 297 104 32 326 321 326 323 319
17 135 175 177 157 147 125 100 167 158 86 98 139 40 31 34 81 104 146 158 115 171 174 180 198 92 201 197 234 333 209 223 280 241 68 316 19 90 54 326 325 316 305 303
24 112 126 132 123 90 66 71 139 151 131 91 112 133 32 2 66 58 85 77 75 144 156 207 173 175 188 220 241 162 74 35 38 45 351 212 70 130 342 317 310 307 297 314
89 101 105 108 114 98 55 55 114 124 95 60 130 137 164 356 128 126 344 148 172 150 144 152 181 135 188 240 241 97 18 343 33 27 14 341 328 16 9 348 342 324 340 343
107 95 75 59 44 54 93 110 98 73 69 131 169 194 149 68 78 77 118 12 181 55 221 193 172 166 224 351 30 32 18 3 337 334 335 21 39 17 1 350 347 329 334 337
126 89 53 59 31 114 115 55 43 37 14 47 193 63 146 212 163 134 131 25 122 217 214 132 214 235 82 34 18 348 347 349 340 327 231 353 340 337 323 316 310 306 310 313
3 50 66 97 81 57 33 67 63 351 239 168 89 186 144 192 157 159 187 164 169 229 185 206 202 233 40 3 52 30 7 360 350 319 298 285 278 285 298 302 304 303 305 305
131 123 118 112 54 55 94 114 353 224 234 152 163 120 83 135 218 159 171 193 175 245 134 208 225 82 55 16 1 316 300 312 322 305 292 295 291 289 290 292 296 298 299 300
109 66 74 83 19 69 187 198 223 231 183 165 153 151 137 133 200 168 165 197 221 127 201 228 46 356 298 282 280 303 308 303 304 306 306 303 299 295 282 286 294 294 293 295
187 159 206 197 190 234 188 200 126 77 112 120 97 116 198 162 181 209 223 178 163 216 226 185 145 243 274 280 288 296 311 312 308 306 305 303 298 295 299 292 289 289 288 293
127 144 218 196 108 92 108 142 117 47 352 128 137 125 243 164 242 210 191 203 235 256 153 142 154 324 314 309 312 309 305 304 297 301 300 294 292 289 292 295 289 284 285 289
51 55 113 115 130 131 126 101 110 14 344 183 20 124 150 207 298 218 205 201 219 142 155 102 322 314 313 311 309 304 294 287 289 286 290 292 285 285 291 297 292 289 285 280
54 34 16 37 56 89 100 59 76 334 244 168 163 183 198 100 113 216 217 204 107 95 301 308 312 303 304 306 303 301 301 299 294 290 289 286 289 292 292 287 295 292 287 283